Regional Weather Roundup
Issued by NWS

Home | Current Version | Previous Version | Text Only | Print | Product List | Glossary On
Versions: 1 2 3 4 5 6 7 8 9 10 11 12 13 14 15 16 17 18 19 20 21 22 23 24 25 26 27 28 29 30 31 32 33 34 35 36 37 38 39 40 41 42 43 44 45 46 47 48 49 50
000
ASUS43 KDTX 030501
RWRMI
MICHIGAN HOURLY REGIONAL WEATHER ROUNDUP
NATIONAL WEATHER SERVICE DETROIT/PONTIAC MI
100 AM EDT THU SEP 03 2015

NOTE: "FAIR" INDICATES FEW OR NO CLOUDS BELOW 12,000 FEET WITH NO
SIGNIFICANT WEATHER AND/OR OBSTRUCTION TO VISIBILITY.

MIZ047>049-052>055-059>063-066>070-074>076-081>083-030600-
SOUTHEAST LOWER MICHIGAN

CITY           SKY/WX    TMP DP  RH WIND       PRES   REMARKS
ADRIAN         PTCLDY    68  66  93 CALM      30.00S
ALMA           MOCLDY    70  67  93 CALM      29.99R
ANN ARBOR      PTCLDY    68  66  93 W8        29.99S FOG
BAD AXE        PTCLDY    67  67  97 CALM      29.97R
CARO           PTCLDY    65  65  97 SW5       29.96R
DETROIT CITY   CLEAR     74  66  76 CALM      29.96F
DETROIT        MOCLDY    75  68  78 W3        29.98S
FLINT          PTCLDY    71  66  84 SW7       29.98S
GROSSE ILE     CLEAR     72  68  88 CALM      29.96F
HILLSDALE      PTCLDY    69  69 100 CALM      30.02S FOG
HOWELL         PTCLDY    71  68  91 SW5       30.00S

CITY           SKY/WX    TMP DP  RH WIND       PRES   REMARKS
JACKSON        CLEAR     71  68  90 CALM      30.01R FOG
LAMBERTVILLE   PTCLDY    70  67  91 W3        29.99S
LANSING        MOCLDY    72  68  87 CALM      30.00S FOG
LAPEER           N/A     65  65 100 CALM      29.97S FOG
MASON          PTCLDY    69  67  91 CALM      30.00S FOG
MONROE         PTCLDY    70  67  90 CALM      29.97F
PONTIAC        CLEAR     72  68  87 SW3       29.97F
PORT HOPE        N/A     69  68  96 W5        29.95R
PORT HURON     PTCLDY    66  66 100 SW3       29.95F
TRI CITIES     MOCLDY    70  65  84 SW5       29.98R
MIDLAND        MOCLDY    68  67  96 E3        29.97R
TROY           CLEAR     75  69  80 SW5       29.99F
SAGINAW HB     MOCLDY    68  64  88 SW5       29.96S
$$
MIZ043>046-050>051-056>058-064>065-071>073-077>080-030600-
SOUTHWEST LOWER MICHIGAN

CITY           SKY/WX    TMP DP  RH WIND       PRES   REMARKS
BATTLE CREEK   PTCLDY    74  69  85 SW3       30.00F
BENTON HARBOR  PTCLDY    70  68  93 CALM      29.98F
BIG RAPIDS     PTCLDY    69  68  96 CALM      29.98F FOG
COLDWATER      PTCLDY    69  69  99 CALM      30.01S FOG
FREMONT        FAIR      70  70 100 SE3       29.97F FOG
HOLLAND        PTCLDY    75  70  84 W6        30.00R THUNDER
GRAND RAPIDS   PTCLDY    73  69  87 CALM      29.99R
IONIA          FAIR      71  70  97 E3        29.99R FOG
KALAMAZOO      PTCLDY    73  69  87 CALM      30.00S
LUDINGTON      PTCLDY    75  70  84 S3        29.95F
MARSHALL       PTCLDY    69  68  96 CALM      29.99F FOG
MOUNT PLEASANT PTCLDY    71  68  88 CALM      29.98S
MUSKEGON       PTCLDY    74  68  81 CALM      29.96F
SOUTH HAVEN    PTCLDY    71  69  93 CALM      29.98F
$$
MIZ016>042-030600-
NORTHERN LOWER MICHIGAN

CITY           SKY/WX    TMP DP  RH WIND       PRES   REMARKS
ALPENA         MOCLDY    67  64  90 W5        29.98F
BEAVER ISLAND  CLOUDY    69  67  96 NE7       29.96S FOG
BELLAIRE       CLOUDY    69  65  88 CALM      29.96F
CADILLAC       CLEAR     64  63  95 CALM      29.99F
CHARLEVOIX     CLOUDY    70  69  96 E7        29.99S
FRANKFORT      PTCLDY    69  69  97 CALM      29.93F FOG
GAYLORD        CLOUDY    66  66 100 CALM      30.00F
GRAYLING       MOCLDY    64  62  93 CALM      30.00S
HARBOR SPRINGS CLOUDY    69  67  95 NE7       29.97F
HOUGHTON LAKE  PTCLDY    68  66  93 SW6       29.99F
MANISTEE       PTCLDY    70  64  83 E3        29.95F
OSCODA         MOCLDY    68  67  96 CALM      29.95S
PELLSTON       CLOUDY    69  68  96 SE3       29.98S
ROGERS CITY    CLOUDY    67  65  91 W3        29.99S
TRAVERSE CITY  PTCLDY    72  68  87 CALM      29.94F
$$
MIZ007>008-015-030600-
EASTERN UPPER MICHIGAN

CITY           SKY/WX    TMP DP  RH WIND       PRES   REMARKS
KINROSS        CLOUDY    66  64  94 N7        29.98R
MACKINAC ISLAN CLOUDY    67  64  90 SE5       29.97S
NEWBERRY       LGT RAIN  66  66  99 SW3       30.00R
S. S. MARIE    LGT RAIN  66  63  90 NW3       29.97R
MUNISING         N/A     67  64  90 CALM      29.97F
$$
MIZ004>006-011>014-085-030600-
CENTRAL UPPER MICHIGAN

CITY           SKY/WX    TMP DP  RH WIND       PRES   REMARKS
MANISTIQUE     LGT RAIN  68  67  97 CALM      29.98S
ESCANABA       CLOUDY    68  66  94 E6        29.95S
MENOMINEE      CLOUDY    66  63  88 E6        29.93S
SAWYER-GWINN   LGT RAIN  65  64  94 N3        29.99F
$$
MIZ001>003-009>011-084-030600-
WESTERN UPPER MICHIGAN

CITY           SKY/WX    TMP DP  RH WIND       PRES   REMARKS
IRON MOUNTAIN  LGT RAIN  65  63  93 N5        29.95F FOG
HOUGHTON       FOG       64  63  96 E5        29.98F VSB 1/4
COPPER HARBOR    N/A     63  60  90 SW5       29.98S
IRONWOOD       MOCLDY    61  61 100 CALM      29.95F VSB 1/2
$$

ABBREVIATIONS USED IN REMARKS
   TC - TEMPERATURE IN CELSIUS
  WCI - WIND CHILL INDEX
   HX - HEAT INDEX
  VSB - VISIBILITY



USA.gov is the U.S. government's official web portal to all federal, state and local government web resources and services.